Location: Bühlhof
(48.7849°N, 8.6361°E)
Time: 19:49:34
(UTC+00:00)

IRS-1C - Pass Details

Date: 19 January 2026
Orbit: 813 x 814 km, 99.0° (Epoch: 16 February)

Event Time Altitude Azimuth Distance (km) Brightness Sun altitude
Rises 17:05:43 0° 165° (SSE) 3,326 7.4 -10.2°
Reaches altitude 10° 17:08:03 10° 167° (SSE) 2,398 6.6 -10.6°
Maximum altitude 17:13:22 81° 255° (WSW) 830 4.3 -11.4°
Drops below altitude 10° 17:18:43 10° 343° (NNW) 2,415 6.6 -12.3°
Sets 17:21:04 0° 345° (NNW) 3,351 7.3 -12.7°
